This is the latest recevied weather packets stored in our database for station/object KB1WCR. If no packets are shown the sender has not sent any weather packets the latest 10 day(s).
| Time | Temp. | Humidity | Pressure | Rain* | Wind** | Luminosity | Snow |
|---|---|---|---|---|---|---|---|
| 1788432344 | 15.56° C | 99% | 1016.4 hPa | 0 mm | - | 11 W/m² | - |
| 1788432040 | 15.56° C | 99% | 1016.6 hPa | 0 mm | - | 6 W/m² | - |
| 1788431735 | 15.56° C | 99% | 1016.5 hPa | 0 mm | - | 5 W/m² | - |
| 1788431432 | 15.56° C | 99% | 1016.5 hPa | 0 mm | - | 3 W/m² | - |
| 1788431127 | 15.56° C | 99% | 1016.8 hPa | 0 mm | - | 2 W/m² | - |
| 1788430826 | 15.56° C | 99% | 1016.8 hPa | 0 mm | - | 1 W/m² | - |
| 1788430520 | 15.56° C | 99% | 1016.8 hPa | 0 mm | - | 1 W/m² | - |
| 1788430216 | 16.11° C | 99% | 1016.9 hPa | 1.78 mm | - | 0 W/m² | - |
| 1788429910 | 16.11° C | 99% | 1016.9 hPa | 1.78 mm | - | 0 W/m² | - |
| 1788429609 | 16.11° C | 99% | 1016.7 hPa | 0 mm | - | 0 W/m² | - |
| 1788429302 | 16.11° C | 99% | 1016.7 hPa | 0 mm | - | 0 W/m² | - |
| 1788428997 | 16.11° C | 99% | 1016.7 hPa | 0 mm | - | 0 W/m² | - |
| 1788428697 | 16.11° C | 99% | 1016.8 hPa | 0 mm | - | 0 W/m² | - |
| 1788428393 | 16.11° C | 99% | 1016.6 hPa | 0 mm | - | 0 W/m² | - |
| 1788428088 | 16.11° C | 99% | 1016.8 hPa | 0 mm | - | 0 W/m² | - |
| 1788427783 | 16.11° C | 99% | 1016.9 hPa | 0 mm | - | 0 W/m² | - |
| 1788427477 | 16.11° C | 99% | 1017.1 hPa | 0 mm | - | 0 W/m² | - |
| 1788427176 | 16.11° C | 99% | 1017.3 hPa | 1.27 mm | - | 0 W/m² | - |
| 1788426875 | 16.11° C | 99% | 1017.1 hPa | 3.05 mm | - | 0 W/m² | - |
| 1788426570 | 16.11° C | 99% | 1017.2 hPa | 1.78 mm | - | 0 W/m² | - |
| 1788426266 | 16.11° C | 99% | 1017.4 hPa | 1.78 mm | - | 0 W/m² | - |
| 1788425964 | 16.11° C | 99% | 1017.3 hPa | 1.27 mm | - | 0 W/m² | - |
| 1788425663 | 16.11° C | 99% | 1017.4 hPa | 0 mm | - | 0 W/m² | - |
| 1788425363 | 16.11° C | 99% | 1017.3 hPa | 0 mm | - | 0 W/m² | - |
| 1788425061 | 16.11° C | 99% | 1017.5 hPa | 0 mm | - | 0 W/m² | - |
* Rain latest hour (hover to see other rain measurements)
** Current wind speed in m/s (hover to see current wind gust speed)